VISION2 KDAY-KCLE

Flight info

Callsign VISION2
Flight time 0h 39m
Altitude 21000
Route TALKN ROKNN ROKNN4
Aircraft SF50/M-BGS/L

Departure

Time 2026-04-29 17:36
Airport James M. Cox Dayton International Airport (KDAY)

Arrival

Time 2026-04-29 18:15
Airport Cleveland Hopkins International Airport (KCLE)
Time Latitude Longitude Altitude Speed Heading
2026-04-29 17:25 39.89988 -84.20060 998 ft 0 kts 85°
2026-04-29 17:34 39.89989 -84.20051 1008 ft 4 kts 62°
2026-04-29 17:34 39.89988 -84.20091 998 ft 11 kts 261°
2026-04-29 17:34 39.90017 -84.20158 999 ft 8 kts 346°
2026-04-29 17:35 39.90099 -84.20165 998 ft 14 kts 358°
2026-04-29 17:35 39.90094 -84.20375 997 ft 42 kts 235°
2026-04-29 17:35 39.89797 -84.20959 1125 ft 101 kts 240°
2026-04-29 17:36 39.89354 -84.21776 1596 ft 119 kts 239°
2026-04-29 17:36 39.88854 -84.22697 2198 ft 134 kts 243°
2026-04-29 17:36 39.88347 -84.23753 2798 ft 139 kts 242°
2026-04-29 17:36 39.87780 -84.24733 3483 ft 141 kts 227°
2026-04-29 17:37 39.86814 -84.25217 4066 ft 162 kts 184°
2026-04-29 17:37 39.85771 -84.24579 4748 ft 175 kts 134°
2026-04-29 17:37 39.85364 -84.23114 5413 ft 178 kts 90°
2026-04-29 17:37 39.85609 -84.21534 6059 ft 179 kts 70°
2026-04-29 17:38 39.85951 -84.19995 6763 ft 179 kts 71°
2026-04-29 17:38 39.86355 -84.18406 7299 ft 188 kts 70°
2026-04-29 17:38 39.86735 -84.16769 7959 ft 191 kts 71°
2026-04-29 17:38 39.87132 -84.15069 8670 ft 196 kts 69°
2026-04-29 17:39 39.87585 -84.13400 9389 ft 197 kts 67°
2026-04-29 17:39 39.88051 -84.11705 10032 ft 201 kts 68°
2026-04-29 17:39 39.88487 -84.09975 10691 ft 202 kts 69°
2026-04-29 17:39 39.88982 -84.08237 11262 ft 207 kts 66°
2026-04-29 17:40 39.89496 -84.06477 11890 ft 209 kts 67°
2026-04-29 17:40 39.89855 -84.05311 12309 ft 210 kts 66°
2026-04-29 17:40 39.90862 -84.03145 12979 ft 220 kts 48°
2026-04-29 17:40 39.91690 -84.01311 13073 ft 251 kts 68°
2026-04-29 17:41 39.92243 -83.99129 13516 ft 258 kts 73°
2026-04-29 17:41 39.92834 -83.96887 13920 ft 265 kts 69°
2026-04-29 17:41 39.93527 -83.94643 14301 ft 269 kts 67°
2026-04-29 17:41 39.94224 -83.92355 14687 ft 273 kts 68°
2026-04-29 17:42 39.94673 -83.90819 14934 ft 275 kts 69°
2026-04-29 17:42 39.95358 -83.88476 15326 ft 278 kts 69°
2026-04-29 17:42 39.96056 -83.86101 15726 ft 280 kts 68°
2026-04-29 17:42 39.96756 -83.83729 16177 ft 279 kts 68°
2026-04-29 17:43 39.97449 -83.81374 16684 ft 277 kts 67°
2026-04-29 17:43 39.98136 -83.79030 17200 ft 275 kts 67°
2026-04-29 17:43 39.98815 -83.76709 17725 ft 273 kts 66°
2026-04-29 17:43 39.99492 -83.74400 18247 ft 271 kts 66°
2026-04-29 17:44 40.00161 -83.72107 18711 ft 269 kts 65°
2026-04-29 17:44 40.00830 -83.69826 19139 ft 270 kts 65°
2026-04-29 17:44 40.01506 -83.67523 19411 ft 279 kts 65°
2026-04-29 17:44 40.02202 -83.65142 19730 ft 284 kts 66°
2026-04-29 17:45 40.02911 -83.62713 20054 ft 288 kts 66°
2026-04-29 17:45 40.03626 -83.60256 20378 ft 291 kts 65°
2026-04-29 17:45 40.04351 -83.57773 20705 ft 294 kts 65°
2026-04-29 17:45 40.05085 -83.55255 20899 ft 302 kts 65°
2026-04-29 17:46 40.05848 -83.52634 20888 ft 314 kts 66°
2026-04-29 17:46 40.06630 -83.49931 20906 ft 323 kts 66°
2026-04-29 17:46 40.07435 -83.47150 20918 ft 332 kts 67°
2026-04-29 17:46 40.08263 -83.44301 20890 ft 338 kts 67°
2026-04-29 17:47 40.09099 -83.41410 20904 ft 344 kts 67°
2026-04-29 17:47 40.09951 -83.38461 20909 ft 350 kts 68°
2026-04-29 17:47 40.10817 -83.35465 20903 ft 355 kts 67°
2026-04-29 17:47 40.11697 -83.32422 20904 ft 359 kts 68°
2026-04-29 17:48 40.12576 -83.29363 20904 ft 361 kts 68°
2026-04-29 17:48 40.13452 -83.26323 20901 ft 363 kts 68°
2026-04-29 17:48 40.14342 -83.23228 20899 ft 364 kts 68°
2026-04-29 17:48 40.15233 -83.20125 20898 ft 365 kts 68°
2026-04-29 17:49 40.16125 -83.17010 20897 ft 366 kts 68°
2026-04-29 17:49 40.17017 -83.13895 20878 ft 367 kts 68°
2026-04-29 17:49 40.17916 -83.10759 20881 ft 369 kts 68°
2026-04-29 17:49 40.18812 -83.07619 20880 ft 369 kts 68°
2026-04-29 17:50 40.19707 -83.04480 20880 ft 368 kts 68°
2026-04-29 17:50 40.20604 -83.01336 20880 ft 368 kts 68°
2026-04-29 17:50 40.21500 -82.98197 20880 ft 368 kts 68°
2026-04-29 17:50 40.22382 -82.95091 20882 ft 368 kts 68°
2026-04-29 17:51 40.23275 -82.91945 20879 ft 369 kts 68°
2026-04-29 17:51 40.24171 -82.88788 20876 ft 369 kts 68°
2026-04-29 17:51 40.25064 -82.85639 20874 ft 368 kts 68°
2026-04-29 17:51 40.25953 -82.82497 20888 ft 368 kts 69°
2026-04-29 17:52 40.26843 -82.79345 20884 ft 368 kts 69°
2026-04-29 17:52 40.27431 -82.77260 20863 ft 367 kts 69°
2026-04-29 17:52 40.28601 -82.73112 20871 ft 366 kts 69°
2026-04-29 17:52 40.29480 -82.69987 20864 ft 365 kts 69°
2026-04-29 17:53 40.30353 -82.66871 20859 ft 364 kts 69°
2026-04-29 17:53 40.31227 -82.63756 20859 ft 365 kts 69°
2026-04-29 17:53 40.32112 -82.60636 20860 ft 365 kts 69°
2026-04-29 17:53 40.32990 -82.57514 20865 ft 366 kts 70°
2026-04-29 17:54 40.33861 -82.54382 20856 ft 366 kts 70°
2026-04-29 17:54 40.34736 -82.51249 20855 ft 365 kts 69°
2026-04-29 17:54 40.35610 -82.48123 20858 ft 365 kts 69°
2026-04-29 17:54 40.36482 -82.44996 20856 ft 365 kts 70°
2026-04-29 17:55 40.37352 -82.41871 20858 ft 365 kts 70°
2026-04-29 17:55 40.38223 -82.38737 20843 ft 365 kts 70°
2026-04-29 17:55 40.39082 -82.35647 20851 ft 366 kts 70°
2026-04-29 17:55 40.39953 -82.32518 20849 ft 365 kts 70°
2026-04-29 17:56 40.40820 -82.29384 20851 ft 365 kts 70°
2026-04-29 17:56 40.41687 -82.26252 20852 ft 365 kts 70°
2026-04-29 17:56 40.42554 -82.23122 20852 ft 364 kts 70°
2026-04-29 17:56 40.43418 -82.19994 20851 ft 364 kts 70°
2026-04-29 17:57 40.44280 -82.16869 20851 ft 364 kts 70°
2026-04-29 17:57 40.45138 -82.13747 20852 ft 364 kts 70°
2026-04-29 17:57 40.45999 -82.10620 20853 ft 365 kts 70°
2026-04-29 17:57 40.46859 -82.07485 20861 ft 365 kts 70°
2026-04-29 17:58 40.47721 -82.04347 20862 ft 364 kts 70°
2026-04-29 17:58 40.48579 -82.01219 20864 ft 364 kts 70°
2026-04-29 17:58 40.49437 -81.98086 20863 ft 364 kts 70°
2026-04-29 17:58 40.50292 -81.94957 20868 ft 364 kts 70°
2026-04-29 17:59 40.51150 -81.91825 20867 ft 364 kts 70°
2026-04-29 17:59 40.52160 -81.88779 20859 ft 363 kts 58°
2026-04-29 17:59 40.53634 -81.86099 20860 ft 360 kts 45°
2026-04-29 17:59 40.55445 -81.83925 20861 ft 354 kts 31°
2026-04-29 18:00 40.57540 -81.82284 20863 ft 347 kts 18°
2026-04-29 18:00 40.59786 -81.81248 20863 ft 337 kts
2026-04-29 18:00 40.62071 -81.80698 20887 ft 333 kts
2026-04-29 18:00 40.64339 -81.80166 20826 ft 330 kts
2026-04-29 18:01 40.66614 -81.79623 20575 ft 333 kts
2026-04-29 18:01 40.68901 -81.79089 20326 ft 335 kts
2026-04-29 18:01 40.71205 -81.78554 20049 ft 338 kts
2026-04-29 18:01 40.73536 -81.78007 19683 ft 340 kts
2026-04-29 18:02 40.75839 -81.77462 19325 ft 340 kts
2026-04-29 18:02 40.78172 -81.76914 18956 ft 340 kts
2026-04-29 18:02 40.80496 -81.76368 18601 ft 339 kts
2026-04-29 18:02 40.82818 -81.75821 18250 ft 339 kts
2026-04-29 18:03 40.85148 -81.75272 17798 ft 340 kts
2026-04-29 18:03 40.87481 -81.74726 17388 ft 339 kts
2026-04-29 18:03 40.89798 -81.74487 16990 ft 331 kts 354°
2026-04-29 18:03 40.92074 -81.74419 16599 ft 323 kts 355°
2026-04-29 18:04 40.94305 -81.74311 16213 ft 318 kts 355°
2026-04-29 18:04 40.96518 -81.74212 15725 ft 317 kts 355°
2026-04-29 18:04 40.98697 -81.74131 15235 ft 317 kts 355°
2026-04-29 18:04 41.00890 -81.74093 14745 ft 311 kts 350°
2026-04-29 18:05 41.02974 -81.74604 14243 ft 298 kts 336°
2026-04-29 18:05 41.04817 -81.75624 13536 ft 277 kts 323°
2026-04-29 18:05 41.06353 -81.77018 12716 ft 260 kts 311°
2026-04-29 18:05 41.07578 -81.78651 11903 ft 241 kts 302°
2026-04-29 18:06 41.08519 -81.80408 11099 ft 227 kts 296°
2026-04-29 18:06 41.09383 -81.82134 10324 ft 222 kts 298°
2026-04-29 18:06 41.10252 -81.83812 9543 ft 218 kts 299°
2026-04-29 18:06 41.11102 -81.85471 8709 ft 217 kts 299°
2026-04-29 18:07 41.11939 -81.87118 7904 ft 218 kts 300°
2026-04-29 18:07 41.12792 -81.88789 7118 ft 219 kts 300°
2026-04-29 18:07 41.13636 -81.90473 6339 ft 220 kts 300°
2026-04-29 18:07 41.14455 -81.92168 5676 ft 216 kts 300°
2026-04-29 18:08 41.15245 -81.93861 5191 ft 214 kts 299°
2026-04-29 18:08 41.16020 -81.95541 4673 ft 212 kts 300°
2026-04-29 18:08 41.16797 -81.97180 4319 ft 204 kts 301°
2026-04-29 18:08 41.17571 -81.98774 3973 ft 207 kts 301°
2026-04-29 18:09 41.18336 -82.00394 3686 ft 205 kts 302°
2026-04-29 18:09 41.19080 -82.02000 3427 ft 204 kts 301°
2026-04-29 18:09 41.19821 -82.03587 3260 ft 201 kts 300°
2026-04-29 18:09 41.20515 -82.05175 3100 ft 203 kts 299°
2026-04-29 18:10 41.21255 -82.06749 3041 ft 198 kts 310°
2026-04-29 18:10 41.22455 -82.07552 3007 ft 199 kts 353°
2026-04-29 18:10 41.23811 -82.07201 3032 ft 200 kts 18°
2026-04-29 18:10 41.25110 -82.06375 3038 ft 214 kts 24°
2026-04-29 18:11 41.26454 -82.05463 3120 ft 219 kts 22°
2026-04-29 18:11 41.27828 -82.04523 3124 ft 223 kts 24°
2026-04-29 18:11 41.29186 -82.03589 3075 ft 221 kts 24°
2026-04-29 18:11 41.30392 -82.02300 3062 ft 224 kts 41°
2026-04-29 18:12 41.31428 -82.00747 3060 ft 222 kts 48°
2026-04-29 18:12 41.32384 -81.99220 3025 ft 200 kts 46°
2026-04-29 18:12 41.33236 -81.97915 2888 ft 175 kts 45°
2026-04-29 18:12 41.33987 -81.96724 2705 ft 161 kts 47°
2026-04-29 18:13 41.34743 -81.95639 2413 ft 157 kts 43°
2026-04-29 18:13 41.35387 -81.94599 2244 ft 133 kts 45°
2026-04-29 18:13 41.35953 -81.93624 2061 ft 135 kts 44°
2026-04-29 18:13 41.36566 -81.92704 1904 ft 134 kts 44°
2026-04-29 18:14 41.37170 -81.91780 1677 ft 123 kts 45°
2026-04-29 18:14 41.37689 -81.90946 1482 ft 119 kts 44°
2026-04-29 18:14 41.38217 -81.90108 1328 ft 116 kts 44°
2026-04-29 18:14 41.38734 -81.89313 1186 ft 111 kts 45°
2026-04-29 18:15 41.39223 -81.88522 1034 ft 110 kts 47°
2026-04-29 18:15 41.39731 -81.87749 856 ft 110 kts 45°
2026-04-29 18:15 41.40154 -81.87072 773 ft 77 kts 42°
2026-04-29 18:15 41.40374 -81.86705 769 ft 17 kts 94°
2026-04-29 18:16 41.40334 -81.86649 768 ft 5 kts 157°
2026-04-29 18:16 41.40306 -81.86583 768 ft 21 kts 71°
2026-04-29 18:16 41.40449 -81.86377 770 ft 34 kts 48°
2026-04-29 18:16 41.40468 -81.86147 773 ft 31 kts 137°
2026-04-29 18:17 41.40329 -81.85936 774 ft 29 kts 88°